Regional Weather Roundup
Issued by NWS

Home | Current Version | Previous Version | Graphics & Text | Print | Product List | Glossary On
Versions: 1 2 3 4 5 6 7 8 9 10 11 12 13 14 15 16 17 18 19 20 21 22 23 24 25 26 27 28 29 30 31 32 33 34 35 36 37 38 39 40 41 42 43 44 45 46 47 48 49 50
000
ASUS43 KMPX 052310
RWRMN
WEATHER ROUNDUP FOR MINNESOTA
NATIONAL WEATHER SERVICE TWIN CITIES/CHANHASSEN MN
500 PM CST THU MAR 05 2015


NOTE: "FAIR" INDICATES FEW OR NO CLOUDS BELOW 12,000 FEET WITH NO
SIGNIFICANT WEATHER AND/OR OBSTRUCTIONS TO VISIBILITY. N/A MEANS
CURRENT SKY AND/OR WEATHER CONDITIONS ARE NOT AVAILABLE.

MNZ060>063-068>070-060000-
   Twin Cities Metro

CITY           SKY/WX    TMP DP  RH WIND       PRES   REMARKS
TWIN CITIES    SUNNY     15   0  51 SW8       30.41F WCI   4
ST PAUL        SUNNY     16   0  49 SW12      30.43F WCI   3
CRYSTAL        SUNNY     15   1  53 SW7       30.39F WCI   5
BLAINE         SUNNY     16   1  53 S9G16     30.39F WCI   4
LAKEVILLE      SUNNY     12   0  57 S7        30.41F WCI   2
EDEN PRAIRIE   SUNNY     16   1  51 S12       30.39F WCI   3
SOUTH ST PAUL  SUNNY     16   1  51 S9        30.41F WCI   5
LAKE ELMO      FAIR      16   1  53 SW8       30.41F WCI   5
$$
MNZ001>005-007-008-013>017-022>024-027-028-060000-
   Northwest Minnesota

CITY           SKY/WX    TMP DP  RH WIND       PRES   REMARKS
BEMIDJI        SUNNY     16  -3  42 SW12G20   30.17F WCI   3
HALLOCK        SUNNY     21  12  68 S23       30.08F WCI   5
ROSEAU         SUNNY     16   7  67 S18G24    30.10F WCI  -1
WARROAD        SUNNY     16   3  57 S14G20    30.11F WCI   1
THIEF RVR FALL SUNNY     18   9  68 S22G28    30.13F WCI   0
CROOKSTON      SUNNY     23  10  58 SW23G31   30.17S WCI   7
FOSSTON        SUNNY     16   3  57 S23       30.17F WCI  -2
DETROIT LAKES  SUNNY     18   3  53 S10       30.22S WCI   6
MOORHEAD       SUNNY     23   7  50 S14G24    30.23S WCI  11
PARK RAPIDS    SUNNY     14  -3  47 S14       30.21F WCI  -1
MAHNOMEN       FAIR      16   4  59 S21G28    30.20S WCI  -1
$$
MNZ006-009>011-018-025>026-060000-
   North Central Minnesota

CITY           SKY/WX    TMP DP  RH WIND       PRES   REMARKS
BAUDETTE       CLEAR     18  -1  43 SW15      30.10F WCI   4
FLAG ISLAND    CLEAR     16   1  53 S18G28    30.08F WCI  -1
INTL FALLS     CLEAR     16  -6  37 SW12G18   30.14F WCI   3
WASKISH        SUNNY     19  -2  38 S7G16     30.15F WCI  10
BIG FORK       CLEAR     16  -4  41 S17       30.19F WCI   0
LONGVILLE      SUNNY     16  -6  38 S13       30.24F WCI   2
GRAND RAPIDS   CLEAR     14  -6  41 S12G21    30.21F WCI   0
CRANE LAKE     CLEAR     16 -11  29 SW6       30.20F WCI   7
ORR            CLEAR     16 -11  29 CALM      30.16S
COOK           CLEAR     16  -8  35 SW8       30.19F WCI   5
WALKER         FAIR      14  -4  43 SW15      30.21F WCI  -1
$$
MNZ012-019>021-037-060000-
   Northeast Minnesota

CITY           SKY/WX    TMP DP  RH WIND       PRES   REMARKS
DULUTH         CLEAR     14  -7  38 SW12      30.24F WCI   0
ELY            CLEAR     12  -9  37 SW10      30.18F WCI  -1
HIBBING        CLEAR     15  -8  35 VRB6      30.21F WCI   6
EVELETH        CLEAR     14  -6  41 SW12      30.22F WCI   0
DULUTH HARBOR  FAIR      16  -4  41 SW13      30.33F WCI   2
TWO HARBORS    CLEAR     18  -4  38 SW9G16    30.24F WCI   6
SILVER BAY     CLEAR     18  -9  29 SW5       30.23F WCI  11
GRAND MARAIS     N/A     19  11  70 SW29G38   30.24F WCI   0
G MARAIS ARPRT CLEAR     10   0  61 S9G16     30.14F WCI  -2
$$
MNZ029>031-032-039>041-046>048-054>057-064-060000-
   West Central Minnesota

CITY           SKY/WX    TMP DP  RH WIND       PRES   REMARKS
FERGUS FALLS   SUNNY     18   5  57 S17       30.28F WCI   2
WHEATON        SUNNY     18   9  68 S12       30.28F WCI   5
MORRIS         SUNNY     19   7  58 S16       30.27F WCI   5
ALEXANDRIA     SUNNY     15   2  56 S12       30.27F WCI   2
ELBOW LAKE     FAIR      17   7  64 S14       30.26F WCI   3
WADENA         SUNNY     14   0  52 S10G16    30.24F WCI   1
GLENWOOD       SUNNY     18   3  53 S14       30.28F WCI   4
APPLETON       SUNNY     21   7  53 S12       30.30F WCI   9
BENSON         SUNNY     21   5  49 SW10      30.30F WCI  10
ORTONVILLE     SUNNY     21   9  58 S8G17     30.27F WCI  12
MADISON        SUNNY     23  10  58 S14       30.30F WCI  11
WILLMAR        FAIR      21   3  45 S6        30.33F WCI  14
$$
MNZ033>034-036-042>043-049>051-058-059-060000-
   Central Minnesota

CITY           SKY/WX    TMP DP  RH WIND       PRES   REMARKS
ST CLOUD       SUNNY     13   0  56 S12       30.35F WCI  -1
SAUK CENTRE    FAIR      16   4  59 S15       30.30F WCI   2
PAYNESVILLE    SUNNY     14   2  60 S8        30.33F WCI   3
AITKIN         SUNNY     16  -6  38 S12G18    30.27F WCI   3
PINE RIVER     SUNNY     14  -2  48 S9        30.28F WCI   2
BRAINERD       SUNNY     11  -3  53 S15       30.28F WCI  -5
STAPLES        SUNNY     12  -2  52 S14       30.27F WCI  -3
LONG PRAIRIE   FAIR      14   3  62 S12       30.29F WCI   0
LITTLE FALLS   SUNNY     14   0  52 S9        30.32F WCI   2
LITCHFIELD     SUNNY     18   5  57 S5        30.35F WCI  11
BUFFALO        SUNNY     14   3  59 S6        30.39F WCI   5
MAPLE LAKE     SUNNY     15   4  62 S8        30.37F WCI   5
$$
MNZ037-044-045-052-053-060000-
   East Central Minnesota

CITY           SKY/WX    TMP DP  RH WIND       PRES   REMARKS
PRINCETON      SUNNY     12   0  57 S9        30.36F WCI   0
MORA           SUNNY     14  -2  48 SW9       30.36F WCI   2
CAMBRIDGE      SUNNY     12   0  57 S8        30.36F WCI   1
RUSH CITY      CLEAR     12  -4  48 S8        30.38F WCI   1
MOOSE LAKE     CLEAR     14  -4  44 SW12G17   30.29F WCI   0
HINCKLEY       FAIR      14  -2  48 SW12      30.35F WCI   0
CLOQUET        CLEAR     12  -9  37 SW13G20   30.27S WCI  -3
MCGREGOR       CLEAR     12  -2  52 S10G17    30.29F WCI  -1
$$
MNZ071>073-080-081-089-090-097-098-060000-
   Southwest Minnesota

CITY           SKY/WX    TMP DP  RH WIND       PRES   REMARKS
MONTEVIDEO     SUNNY     25   9  50 W10       30.32F WCI  15
GRANITE FALLS  SUNNY     21   9  58 S12       30.34F WCI   9
CANBY          SUNNY     24   8  52 S10       30.29F WCI  13
MARSHALL       SUNNY     21   7  53 S13       30.32F WCI   9
REDWOOD FALLS  SUNNY     20   4  50 SW13      30.35F WCI   7
OLIVIA         SUNNY     19   5  53 SW13      30.34F WCI   7
PIPESTONE      SUNNY     23  10  58 S13       30.26F WCI  11
WINDOM         SUNNY     21   5  49 S13       30.33F WCI   9
WORTHINGTON    SUNNY     21   7  53 S14       30.33F WCI   8
JACKSON        SUNNY     23   5  46 S9        30.35S WCI  13
TRACY          SUNNY     23   8  54 S9        30.32F WCI  13
SLAYTON        SUNNY     22   4  46 S12G18    30.30F WCI  11
$$
MNZ065>067-074>077-082>085-091>093-060000-
   South Central Minnesota

CITY           SKY/WX    TMP DP  RH WIND       PRES   REMARKS
MANKATO        SUNNY     18   1  49 S10       30.40S WCI   6
NEW ULM        SUNNY     19   3  49 SW10      30.37F WCI   8
ST JAMES       SUNNY     21   7  53 S10       30.39F WCI  10
FAIRMONT       SUNNY     19   3  49 S9        30.38S WCI   9
GLENCOE        SUNNY     18   7  62 SW6       30.38F WCI  10
FARIBAULT      SUNNY     16   1  53 S8        30.41F WCI   5
OWATONNA       SUNNY     16   1  53 S9        30.40F WCI   4
WASECA         SUNNY     18   5  57 SW12      30.42F WCI   5
ALBERT LEA     SUNNY     14   3  62 S8        30.41S WCI   3
$$
MNZ078>079-086>088-094>096-060000-
   Southeast Minnesota

CITY           SKY/WX    TMP DP  RH WIND       PRES   REMARKS
ROCHESTER      SUNNY      8  -1  66 SW9       30.42F WCI  -5
RED WING       SUNNY     14  -2  48 SW8       30.44F WCI   3
STANTON        SUNNY     15   2  57 SW10      30.41F WCI   3
DODGE CENTER   MOSUNNY   10   1  67 SW8       30.40F WCI  -1
WINONA         CLEAR     14   0  52 W7        30.49S WCI   4
AUSTIN         SUNNY     10   0  61 S8        30.42F WCI  -1
PRESTON        SUNNY      8  -2  65 W8        30.43F WCI  -5
$$
ABBREVIATIONS USED IN REMARKS
   TC - TEMPERATURES IN CELSIUS
  WCI - WIND CHILL INDEX
   HX - HEAT INDEX
  VSB - VISIBILITY
$$


USA.gov is the U.S. government's official web portal to all federal, state and local government web resources and services.